{"data":{"norad_id":43146,"epoch":"2026-05-25T04:08:43.960992Z","epoch_age_seconds":57446,"freshness":"FRESH","line1":"1 43146U 18006A   26145.17273103  .00007793  00000+0  23403-3 0  9995","line2":"2 43146  97.6592 304.8599 0003652  49.0974 311.0584 15.34723716465180","mean_motion":15.34723716,"eccentricity":0.0003652,"inclination_deg":97.6592,"raan_deg":304.8599,"arg_perigee_deg":49.0974,"mean_anomaly_deg":311.0584,"bstar":0.00023403,"rev_number":46518,"period_min":93.827962973891,"perigee_km":459.24333362009,"apogee_km":464.23918069912,"semimajor_km":6839.8782571596,"source":"CELESTRAK","updated_at":"2026-05-25T13:37:55.783975Z"}}